Regional Weather Roundup
Issued by NWS Wakefield, VA

Home | Current Version | Previous Version | Graphics & Text | Print | Product List | Glossary On
Versions: 1 2 3 4 5 6 7 8 9 10 11 12 13 14 15 16 17 18 19 20 21 22 23 24 25 26 27 28 29 30 31 32 33 34 35 36 37 38 39 40 41 42 43 44 45 46 47 48 49 50
000
ASUS41 KAKQ 211310
RWRAKQ

REGIONAL WEATHER ROUNDUP
NATIONAL WEATHER SERVICE WAKEFIELD VA
900 AM EDT SUN SEP 21 2014

Note: "fair" indicates few or no clouds below 12,000 feet with no
significant weather and/or obstructions to visibility. * = Denotes
station may not report precipitation (e.g., rain,snow,etc.),
thunder or fog.

VAZ042-051-052>054-056-211400-
NORTHERN VIRGINIA

CITY           SKY/WX    TMP DP  RH WIND       PRES   REMARKS
WASH NATIONAL  CLOUDY    67  61  81 E5        29.88F
DULLES         LGT RAIN  62  59  90 W3        29.88F
FORT BELVOIR   PTSUNNY   62  60  94 SE3       29.88F
QUANTICO       PTSUNNY   62  60  93 NW3       29.89F
FREDERICKSBRG* MOSUNNY   61  61 100 CALM      29.88S
STAFFORD*      MOSUNNY   59  59 100 CALM      29.92F
WARRENTON      PTSUNNY   60  60 100 CALM      29.88F
CULPEPER*      MOSUNNY   57  57 100 CALM      29.90S
MANASSAS*      SUNNY     57  57 100 W3        29.88F
LEESBURG*      SUNNY     61  61 100 CALM      29.89F
WINCHESTER     SUNNY     64  57  77 SW3       29.88S
FRONT ROYAL*   SUNNY     63  57  82 S9        29.88S
LURAY*         SUNNY     63  61  94 CALM      29.91F
$$

VAZ048-049-060>072-079>083-211400-
CENTRAL AND SOUTH CENTRAL VIRGINIA...AND NORTH CENTRAL NORTH CAROLINA

CITY           SKY/WX    TMP DP  RH WIND       PRES   REMARKS
RICHMOND       PTSUNNY   65  62  90 CALM      29.89S
CHESTERFIELD*  MOSUNNY  N/A N/A N/A CALM      29.89F
PETERSBURG*    MOSUNNY   65  62  90 N5        29.90S
HANOVER        PTSUNNY   63  61  93 CALM      29.90F FOG
TAPPAHANNOCK*  CLOUDY    65  64  94 CALM      29.89S FOG
CHARLOTTSVILLE SUNNY     62  58  86 CALM      29.89F
ORANGE*        SUNNY     59  57  94 CALM      29.90F
LOUISA*        SUNNY     63  61  94 CALM      29.87F
FARMVILLE*     SUNNY     63  61  94 CALM      29.87F
CREWE*         MOSUNNY   64  61  87 CALM      29.89S
FORT PICKETT*  CLOUDY    62  62  97 NE3       29.89F VSB 1
LUNENBURG*     MOSUNNY   64  61  90 N3        29.89F
SOUTH HILL*    MOSUNNY   64  64 100 N5        29.94F
LAWRENCEVILLE* PTSUNNY   64  63  97 CALM      29.88F
ROANOKE RAPIDS CLOUDY    66  63  88 N8        29.87S
RALEIGH        MOSUNNY   66  61  84 N5        29.92R
$$

VAZ088>098-211400-
SOUTHEAST VIRGINIA

CITY           SKY/WX    TMP DP  RH WIND       PRES   REMARKS
NORFOLK        LGT RAIN  72  69  90 N10       29.81F
VIRGINIA BEACH LGT RAIN  72  70  93 N12       29.80S
NORFOLK NAVAL  LGT RAIN  73  70  90 N15       29.83F
WEST POINT*    CLOUDY    68  66  92 NW5       29.88S
NEWPORT NEWS   CLOUDY    74  69  85 N7        29.83F
LANGLEY AFB    LGT RAIN  71  71 100 N10       29.82F
FORT EUSTIS    CLOUDY    70 N/A N/A VRB7      29.82F
WILLIAMSBURG*  CLOUDY    72  70  94 N5        29.86S
HR EXEC AP*    CLOUDY    70  68  94 N6        29.84F
FRANKLIN*      CLOUDY    70  66  88 N6        29.84F
WAKEFIELD      CLOUDY    67  64  90 VRB5      29.86F FOG
$$

VAZ020-022-025-037-045-211400-
WEST CENTRAL AND SOUTHWEST VIRGINIA

CITY           SKY/WX    TMP DP  RH WIND       PRES   REMARKS
STAUNTON*      SUNNY     60  55  84 SW3       29.94F
HOT SPRINGS VA SUNNY     56  45  65 W15       30.02F
LYNCHBURG      SUNNY     61  59  93 S5        29.93S
DANVILLE       MOSUNNY   63  59  87 CALM      29.92F
SOUTH BOSTON*  NOT AVBL
MARTINSVILLE   SUNNY     59  59 100 CALM      29.96S
ROANOKE        MOSUNNY   63  57  81 W10       29.96F
BLACKSBURG     FOG       57  57 100 W3        30.01F VSB<1/4
DUBLIN*        PTSUNNY   57  57 100 SW3       30.01F FOG
MARION*        PTSUNNY   59  57  92 W9        30.06S
HILLSVILLE*    MOSUNNY   54  54 100 W7        30.02F
RICHLANDS*     PTSUNNY   64  59  81 SW5       30.04S
WISE*          SUNNY     64  61  88 SW10      30.05R
ABINGDON*      MOSUNNY   61  59  95 CALM      30.04S
$$

MDZ021>025-VAZ099-100-211400-
SOUTHERN MARYLAND AND THE DELMARVA PENINSULA

CITY           SKY/WX    TMP DP  RH WIND       PRES   REMARKS
PATUXENT RIVER CLOUDY    69  65  86 NE7       29.86F
BAY BRIDGE APT   N/A     68  66  94 N3        29.88F
LEONARDTOWN    CLOUDY    64  63  94 CALM      29.88F
DOVER          CLOUDY    68  68 100 NE2       29.85F
GEORGETOWN     CLOUDY    71  69  93 VRB7      29.86F
EASTON         FOG       66  66 100 CALM      29.90F VSB 1/2
CAMBRIDGE      CLOUDY    70  64  83 N3        29.86F
SALISBURY      CLOUDY    72  70  94 NE3       29.84F FOG
OCEAN CITY     CLOUDY   N/A N/A N/A N6        29.83F HAZE
WALLOPS ISLAND LGT RAIN  71  70  96 N7        29.83F FOG
ACCOMACK*      DRIZZLE   70  68  94 N6        29.83F
$$

NCZ012>017-030>032-211400-
EASTERN NORTH CAROLINA

CITY           SKY/WX    TMP DP  RH WIND       PRES   REMARKS
ELIZABETH CITY LGT RAIN  71  69  93 NW12      29.78F
AHOSKIE*       PTSUNNY   67  65  92 N6        29.85F
EDENTON*       DRIZZLE   71  69  95 N9        29.80S
CURRITUCK*     DRIZZLE  N/A N/A N/A N9        29.79F
KILL DEVIL HLS CLOUDY    72  71  97 N9G18     29.73F
MANTEO         CLOUDY    71  70  96 N16G22    29.74F
CAPE HATTERAS  CLOUDY    71  71 100 N9        29.73R
TARBORO*       CLOUDY    68  64  89 N6        29.87S
GOLDSBORO      PTSUNNY   72  69  90 NW1       29.85S
WASHINGTON     CLOUDY    68  67  96 NW7       29.82S
GREENVILLE     CLOUDY    70  68  94 N8        29.87S
NEW BERN       CLOUDY    72  68  87 NW10G20   29.81S
WILMINGTON     CLOUDY    71  68  90 NW14      29.85R
$$

VAZ048-211400-
ELSEWHERE

CITY           SKY/WX    TMP DP  RH WIND       PRES   REMARKS
HARRISBURG PA  FOG       62  60  93 S6        29.87F VSB 1/2
BALTIMORE      CLOUDY    63  62  97 CALM      29.88F FOG
ANNAPOLIS      CLOUDY    67  64  90 N5        29.88F FOG
ANDREWS AFB    PTSUNNY   64  64  98 E2        29.89F
WILMINGTON DE  CLOUDY    67  64  90 N5        29.89F
PHILADELPHIA   CLOUDY    69  65  86 NE5       29.89F FOG
WILDWOOD NJ*   PTSUNNY   70  64  83 CALM      29.86F
ATLANTIC CITY  FOG       68  67  96 N8        29.86F VSB 1/2
HENDERSON NC   SUNNY     64  61  90 N3        29.91S
GREENSBORO     MOSUNNY   66  60  81 W5        29.93F
ROCKY MOUNT    PTSUNNY   68  64  87 N12       29.88R
FAYETTEVILLE   MOSUNNY   68  62  81 N8        29.90R
CHARLOTTE      MOSUNNY   66  60  81 CALM      29.97F
$$

VAZ100-211400-
MARINE

STATION/POSITION TIME  TEMP    WIND        PRES    WAVE   SWELL
                       AIR SEA DIR/SP/G            HT/PER HT/PER
                 (UTC) (F)     (DEG/KT/KT) (MB)    (FT/S) (FT/S)
44066 TX TWR #4  1300   72 71  120/  8/ 10 1011.5F   5/ 8   5/ 8
CAPE MAY NJ      1300   70 74   60/  2/  4 1010.3F
LEWES DE         1300   71 72   20/  6/  7 1010.4F
15NM E FENWICK I 1300   73 72              1010.0F   4/ 9
OCEAN-CITY-INLET 1300   72 71   10/  5/  6 1009.9F
WACHAPREAGUE VA  1300   70 73   20/  4/  8 1009.7F
THOMAS POINT MD  1300   67 73   10/  6/  7 1012.8F
GOOSES REEF MD   1300   69      30/  8/ 10 1012.0F
COVE POINT MD    1300   69      40/  8/ 10 1011.3F
SOLOMONS ISLAND  1300      76                N/A
BISHOPS HEAD MD  1300   69 72   10/  6/ 11 1010.6F
PINEY POINT MD   1300           40/  2/  3   N/A
POTOMAC MD       1300   70      40/  8/ 12 1010.6F
CAMBRIDGE MD     1300   66 74   10/  6/  8 1011.0F
LEWISETTA VA     1300   70 73   10/  5/  8 1010.9F
RAPPAHANNOCK LGT 1300           10/ 12/ 14 1010.4F
STINGRAY PT      1300   71      40/ 12/ 16   N/A
YORK RVR RNG VA  1300   71      40/ 12/ 14 1009.5F
YORKTOWN VA      1300   71 76  330/  5/  6 1010.0F
JAMESTOWN VA     1300   68     350/  8/ 10   N/A
DOMINION TERM VA 1300   72     360/  9/ 14 1010.1F
KIPTOPEKE VA     1300      78  360/ 11/ 12   N/A
CHES BAY BRIDGE  1300   72 75  340/ 15/ 18 1009.0F
CAPE HENRY VA    1300   72     360/ 15/ 18 1008.0R
CHESAPEAKE LGHT  1200   71      20/ 19/ 20 1009.2F
WILLOUBY STN VA  1300   72     360/ 13/ 14 1008.4F
S CRANEY ISL VA  1300          340/ 13/ 14 1009.4F
CAPE HENRY BUOY  1300      75                N/A     5/ 9   2/11
1ST LANDING BUOY 1300   72      10/ 14/ 17 1009.2S
CAPE CHARLES BUO 1300      74                N/A     5/ 9   3/ 9
OFFSHORE WE BUOY 1300      74                N/A     6/ 8   5/ 8
64NM E OF VA BCH 1300   73 70   30/ 12/ 16 1006.5F   7/ 8   7/ 8
DUCK PIER NC     1300   71 74  360/ 25/ 27 1006.1F
44100 DUCK FRF   1300      74                N/A     7/ 9   2/11
44056 DUCK FRF   1300                        N/A     6/ 9   2/11
OREGON INLET NC  1300   72 74  350/ 14/ 18 1006.4S
HATTERAS NC      1300   73 74  360/ 18/ 21 1006.8R
DIAMOND SHLS NC  1300   76     350/ 19/ 21 1005.0R   9/ 9   7/ 9
CAPE LOOKOUT NC  1200   72     340/ 16/ 19 1007.3R
$$



USA.gov is the U.S. government's official web portal to all federal, state and local government web resources and services.